Temperature
23 23 23 23 23 23 23 24 25 24 25 25 25 25 24 22 21 19 19 19 19 18 18 18 18 18 18 18 18 18 18 18 18 18 18 18 18 18 18 18 18 18 18 18 18 18 18 18 18
23 23 23 23 23 23 23 24 24 24 25 25 25 24 23 22 21 19 19 19 19 18 18 18 18 18 18 17 17 18 18 18 18 18 18 17 18 18 18 18 18 17 18 18 18 18 18 18 18
23 23 24 24 24 23 23 24 24 25 25 25 25 24 22 21 20 19 19 19 19 18 18 18 18 18 18 18 18 18 18 18 18 18 17 17 17 18 18 17 17 17 17 17 18 18 18 18 17
23 24 25 24 23 24 24 24 25 25 25 25 24 23 21 21 20 19 19 19 19 18 18 18 18 18 18 18 18 18 18 17 18 17 17 17 17 17 17 17 17 17 17 17 17 17 17 17 17
24 24 24 23 24 25 25 25 25 25 25 24 24 22 21 20 20 19 19 19 19 18 18 18 18 18 18 18 18 18 18 17 17 17 17 17 17 17 17 17 17 17 17 17 17 17 17 17 17
24 25 23 23 24 25 25 25 25 25 24 24 23 22 21 20 20 19 19 19 19 19 18 18 18 18 18 18 18 18 17 17 17 17 17 17 17 17 17 17 17 17 17 17 17 17 17 17 17
24 24 23 23 23 24 25 25 25 25 24 24 23 22 21 20 20 19 19 19 19 19 18 18 18 18 18 18 18 17 17 17 17 17 17 17 17 17 17 17 17 17 17 17 17 17 17 17 17
24 24 24 24 23 24 25 25 25 24 24 24 23 22 21 20 20 20 19 19 19 19 19 18 18 18 18 17 17 17 17 17 17 17 17 17 17 17 17 17 17 17 17 17 17 17 17 17 17
25 24 23 24 23 24 25 25 25 24 24 23 23 22 21 20 20 20 20 20 19 19 19 18 18 18 18 17 17 17 17 17 17 17 17 17 17 17 17 16 16 16 17 17 17 17 17 16 16
25 23 24 25 25 25 25 25 25 24 24 23 22 22 21 21 20 20 20 20 19 19 19 18 18 18 18 17 17 17 17 17 17 17 17 17 17 16 16 16 16 16 16 16 16 16 16 16 16
25 24 25 25 25 25 25 24 25 24 23 23 22 22 21 21 21 20 20 20 19 19 19 19 18 18 18 17 17 17 17 17 17 17 17 17 17 16 16 16 16 16 16 16 16 16 16 16 16
25 25 25 25 24 24 24 24 24 24 24 23 23 22 21 21 21 21 20 20 20 19 19 19 18 18 18 18 17 17 17 17 17 17 17 17 17 16 16 16 16 16 16 16 16 16 16 16 16
25 25 25 24 24 24 24 24 24 24 23 23 23 22 22 21 21 21 21 20 20 19 19 19 18 18 18 18 17 17 17 17 17 17 17 17 17 17 16 16 16 16 16 16 16 16 16 16 16
25 25 25 25 24 24 24 24 24 24 23 23 23 22 22 22 21 21 21 20 20 19 19 19 18 18 18 18 17 17 17 17 17 17 17 17 17 17 16 16 16 16 16 16 16 16 16 15 15
25 25 25 25 25 24 24 24 24 24 24 23 23 22 22 22 21 21 21 20 20 19 19 18 18 18 18 18 17 17 17 17 17 17 17 17 16 16 16 16 16 16 16 16 16 16 15 15 15
25 24 23 24 25 25 24 22 24 24 24 23 23 22 22 21 21 21 21 20 20 19 19 18 18 18 18 18 17 17 17 17 17 17 17 17 16 16 16 16 16 16 16 16 15 15 15 15 15
24 23 23 24 25 25 24 22 24 24 24 23 23 22 22 22 21 21 21 20 20 19 19 18 18 18 18 18 17 17 17 17 17 16 16 16 16 16 16 16 16 16 16 15 15 15 15 15 15
24 24 24 24 25 25 24 23 23 24 24 24 23 23 22 22 21 21 20 20 20 19 19 18 18 18 18 17 17 17 17 17 16 16 16 16 16 16 16 16 16 15 15 15 15 15 15 15 15
25 24 24 24 25 24 23 23 23 23 23 23 23 23 22 22 21 21 20 20 20 19 19 18 18 18 17 17 17 17 17 16 16 16 16 16 16 16 16 15 15 15 15 15 15 15 15 15 15
25 24 23 24 25 24 23 23 24 24 23 23 23 23 22 22 21 21 20 20 19 19 19 18 18 18 17 17 17 17 16 16 16 16 16 16 16 16 15 15 15 15 15 15 15 15 15 14 14
24 24 23 23 24 24 23 22 23 24 23 22 22 22 22 22 21 21 20 20 19 19 19 18 18 18 17 17 17 17 16 16 16 16 16 16 15 15 15 15 15 15 15 15 15 14 14 14 14
23 24 24 24 23 23 23 21 22 23 22 22 22 22 21 21 21 20 20 19 19 19 18 18 18 18 17 17 17 17 16 16 16 16 16 15 15 15 15 15 15 15 15 15 14 14 14 14 14
24 24 24 24 23 23 24 23 22 23 22 22 22 21 21 20 20 20 19 19 19 18 18 18 18 17 17 17 17 16 16 16 16 16 15 15 15 15 15 15 15 15 15 14 14 14 14 14 14
24 24 24 24 23 22 23 23 22 22 22 22 22 21 21 20 20 19 19 19 19 18 18 18 18 17 17 17 16 16 16 16 16 15 15 15 15 15 15 15 15 14 14 14 14 14 14 14 14
24 22 21 21 21 22 24 23 22 22 23 22 22 21 20 20 19 19 19 18 18 18 18 17 17 17 17 16 16 16 16 16 15 15 15 15 15 15 15 14 14 14 14 14 14 14 14 14 13
23 23 21 20 21 22 23 22 22 23 23 22 21 21 20 19 19 19 18 18 18 18 17 17 17 17 16 16 16 16 16 15 15 15 15 15 15 14 14 14 14 14 14 14 14 14 14 13 13
23 23 23 22 22 21 22 22 22 22 22 21 21 20 19 19 18 18 18 17 17 17 17 17 16 16 16 16 16 16 15 15 15 15 15 14 14 14 14 14 14 14 14 14 14 14 14 13 13
23 23 22 21 20 20 21 21 20 20 20 20 20 19 19 18 18 18 17 17 17 17 16 16 16 16 16 16 15 15 15 15 15 15 14 14 14 14 14 14 14 14 14 14 13 13 13 13 13
22 22 22 21 21 20 20 20 22 20 20 20 20 19 19 18 17 17 17 16 16 16 16 16 15 15 15 15 15 15 15 14 14 14 14 14 14 13 13 13 13 13 13 13 13 13 13 13 13
23 22 22 20 20 21 20 19 22 21 20 20 19 19 18 17 17 17 16 16 16 16 15 15 15 15 15 15 14 14 14 14 14 14 14 13 13 13 13 13 13 13 13 13 13 13 13 13 12
Wind_Speed
11 11 7 2 2 2 7 7 8 7 8 9 9 10 13 14 9 7 2 4 8 9 12 11 11 11 11 11 11 11 10 10 11 12 12 12 12 13 12 12 13 13 13 12 13 12 12 12 12
10 7 4 3 0 3 6 7 10 9 7 6 9 12 14 13 11 7 3 4 8 11 12 11 11 11 11 11 11 11 11 10 11 11 11 12 12 13 13 12 12 12 13 13 12 12 12 12 12
11 8 3 2 3 5 6 8 8 8 6 7 8 11 9 7 9 5 4 6 9 11 13 11 11 12 12 12 12 11 11 10 11 11 12 12 13 13 13 12 12 12 12 12 12 12 11 11 11
6 3 1 2 7 9 8 8 7 7 6 7 8 9 9 9 6 6 5 7 9 10 13 12 12 12 11 12 12 12 11 11 12 12 12 12 13 13 13 13 12 12 12 12 11 11 11 11 11
3 1 2 4 7 8 8 7 6 7 8 9 10 11 10 10 9 8 6 7 8 9 12 12 12 11 11 11 12 12 12 12 12 12 12 12 13 13 14 13 13 13 13 12 12 11 10 10 10
2 1 1 5 8 7 7 6 7 9 9 9 9 10 8 8 7 6 6 6 8 9 10 12 12 12 12 11 11 11 12 12 11 12 11 12 12 12 13 13 14 14 13 13 12 11 10 10 10
1 1 3 6 7 6 6 6 7 7 8 7 7 8 7 8 7 5 5 6 7 8 8 8 11 12 12 11 11 11 11 11 10 10 11 11 12 12 12 12 13 13 13 13 12 12 11 10 9
2 1 3 5 6 6 6 6 6 7 7 6 5 7 6 7 7 6 5 6 6 7 7 6 8 9 10 10 9 9 9 8 8 9 9 9 10 10 10 11 11 11 11 11 11 10 9 9 9
1 1 3 4 5 6 6 5 6 6 7 8 8 10 9 9 8 5 5 5 5 6 5 6 6 7 8 8 8 8 7 6 6 6 7 6 6 7 8 9 9 8 8 8 8 8 7 6 6
1 2 4 4 6 6 5 5 5 5 7 7 8 10 9 8 7 6 5 5 5 4 5 5 5 5 7 6 6 5 5 5 4 5 5 4 5 6 8 7 7 6 5 5 5 5 4 4 3
3 3 5 6 6 5 5 4 4 4 4 6 8 9 8 7 6 5 5 5 5 5 4 4 4 5 5 4 5 3 4 4 3 5 6 5 5 5 6 4 4 3 3 2 2 1 2 4 5
4 5 5 5 5 4 4 3 4 5 5 6 8 7 8 5 5 5 4 5 6 5 4 4 4 4 5 4 3 3 2 2 2 3 6 5 3 3 3 3 3 3 3 2 2 2 5 5 6
5 5 5 5 4 3 3 3 4 5 5 5 7 7 6 5 5 5 4 5 6 6 5 4 3 4 4 4 2 3 2 2 4 4 4 5 2 2 2 2 2 3 3 2 2 4 4 5 6
5 4 4 4 4 3 2 2 3 4 5 6 6 6 6 4 4 5 5 4 5 5 5 5 4 4 4 4 3 2 3 4 4 3 3 4 4 2 2 2 2 2 2 3 3 4 4 4 4
4 4 4 4 3 3 1 1 3 4 4 5 6 5 6 5 4 3 4 4 5 5 6 5 3 3 4 4 3 3 3 4 3 3 4 5 4 3 3 2 2 2 3 4 4 5 4 4 4
6 4 3 4 4 3 2 1 3 3 4 4 5 6 5 5 5 3 4 4 5 5 5 5 4 3 4 4 3 3 4 4 3 4 4 4 4 5 3 3 2 3 4 3 2 3 4 4 4
4 3 3 4 3 3 3 2 2 4 4 5 6 7 6 6 5 4 4 4 5 5 6 5 4 3 4 4 3 3 4 3 4 4 4 4 5 5 4 2 2 4 3 2 3 3 3 3 3
2 1 1 2 3 3 3 3 3 3 3 4 5 6 6 6 6 6 5 4 4 5 6 6 4 3 4 3 3 3 3 2 3 3 3 4 4 4 4 2 2 3 2 2 3 3 2 1 1
2 2 3 1 2 3 2 3 3 3 3 3 4 5 5 6 6 6 6 5 4 4 5 6 4 3 4 2 2 2 2 2 2 2 3 3 3 3 3 2 2 2 2 2 2 2 2 2 1
4 3 2 1 2 2 3 4 4 5 4 2 2 3 5 6 7 6 6 5 4 4 4 4 4 4 4 3 2 2 2 1 2 2 3 3 3 3 2 2 2 2 2 2 2 2 1 1 1
4 2 3 3 4 5 5 5 5 5 5 4 1 1 2 4 5 6 6 5 5 4 4 4 4 4 4 4 2 2 2 1 2 1 2 2 3 3 3 2 1 1 2 1 1 1 1 1 1
4 3 4 5 6 4 5 3 3 6 6 5 3 2 3 4 4 4 5 5 5 3 3 4 4 4 3 3 3 2 2 1 1 1 1 1 2 2 3 2 2 1 2 1 1 1 1 1 0
4 5 7 8 9 9 8 5 4 7 6 5 4 3 3 4 4 4 4 5 5 4 3 3 3 3 3 3 3 2 1 0 1 1 1 1 1 1 2 2 1 1 1 1 1 2 1 1 0
4 7 9 10 8 8 8 5 2 4 6 6 5 4 4 3 4 4 4 4 4 4 3 3 2 2 3 2 2 2 1 1 1 1 1 1 1 0 1 1 1 1 1 1 1 1 1 0 1
6 5 3 3 5 4 3 2 2 6 6 5 5 4 4 3 4 4 4 4 4 4 4 3 3 2 2 2 1 1 1 1 1 1 0 0 0 0 0 1 1 1 1 1 1 1 0 0 0
6 6 4 4 4 4 3 2 4 7 7 5 5 5 4 4 3 3 3 3 3 4 3 4 3 2 1 1 1 1 1 1 1 1 1 1 1 1 1 1 1 1 1 1 1 0 0 0 1
5 5 6 7 8 6 3 1 4 6 6 5 5 4 4 3 3 3 3 3 3 3 2 2 3 3 2 1 1 0 0 1 1 1 1 1 1 0 0 1 1 1 1 1 1 1 1 1 1
6 6 4 4 4 5 4 2 1 3 2 3 3 3 3 3 3 3 3 2 2 2 2 3 3 2 2 0 1 1 1 1 0 1 0 0 0 1 0 0 0 0 1 0 1 1 1 1 1
6 7 5 4 4 4 4 1 2 4 3 2 2 3 4 4 3 3 3 3 2 2 2 1 1 2 1 1 1 1 1 1 1 1 1 1 1 1 1 1 1 0 0 0 1 0 1 1 1
4 6 6 5 5 5 5 1 3 4 4 3 3 3 4 4 3 2 3 2 1 1 2 2 2 0 1 1 1 1 2 1 1 1 1 1 1 1 2 1 1 1 1 1 1 1 2 2 2
Wind_Direction
278 259 251 262 267 90 68 68 75 57 55 50 54 65 65 55 54 83 102 61 84 89 91 76 64 62 62 61 59 58 63 65 66 67 67 66 65 64 63 61 61 61 61 62 62 60 57 57 56
282 280 274 240 208 89 81 78 71 65 65 62 63 68 70 63 73 92 97 72 84 89 85 77 70 66 65 63 60 60 63 69 73 74 73 70 68 66 65 62 60 60 61 61 62 61 59 58 55
270 270 277 299 50 73 86 83 81 77 66 66 69 60 56 64 69 90 105 97 92 93 91 85 77 73 68 64 61 60 65 71 75 77 76 73 70 69 67 65 62 61 60 60 61 61 60 60 56
272 271 249 71 71 72 88 93 94 94 78 67 74 78 71 65 79 97 101 98 96 99 99 97 88 80 74 70 67 63 68 76 77 79 79 76 71 71 70 67 64 64 61 59 57 58 58 60 57
252 272 107 91 81 79 77 80 90 89 80 69 76 92 90 81 89 95 93 89 93 97 102 105 100 91 83 79 75 71 74 81 80 81 82 80 76 72 71 67 65 64 60 56 55 56 57 58 55
280 246 116 100 95 89 90 94 88 84 85 85 88 97 95 102 94 91 89 86 92 99 105 112 113 104 95 88 84 81 80 84 84 83 83 83 80 76 74 69 67 65 61 56 53 53 57 58 53
314 16 99 105 102 92 83 75 76 79 79 76 84 93 109 108 105 105 98 86 86 95 105 113 123 121 109 101 95 93 90 89 88 86 83 85 84 82 77 71 71 69 66 62 60 57 55 55 50
318 84 116 106 105 99 85 80 78 74 75 69 75 89 112 119 123 121 117 104 98 102 104 109 116 121 121 116 108 107 102 96 95 96 92 90 89 87 83 77 75 73 69 66 66 64 60 55 47
304 120 102 101 109 109 112 102 91 92 91 76 73 86 111 129 131 125 115 100 91 94 105 108 112 111 111 116 116 123 117 117 112 111 106 102 100 101 91 87 84 77 74 70 69 67 65 59 54
116 82 85 89 98 106 109 103 114 105 98 100 98 101 116 128 132 126 112 104 99 89 96 100 111 112 112 108 117 120 117 125 120 109 113 107 91 89 93 103 94 84 76 72 70 64 61 55 64
89 85 80 81 88 103 105 103 110 116 107 104 113 120 121 127 127 120 117 116 108 97 87 91 101 113 112 106 108 105 101 112 102 98 103 95 94 93 90 101 101 96 78 59 68 69 43 62 68
97 90 92 88 85 104 117 108 85 66 80 96 111 124 127 133 130 130 125 111 108 104 98 94 96 105 105 100 105 107 99 100 92 82 88 88 85 91 96 93 85 74 50 38 49 52 51 58 57
105 103 106 115 118 113 122 113 98 92 102 113 119 126 125 135 128 123 121 115 116 114 107 93 93 94 101 95 88 99 101 94 86 68 75 86 95 88 86 82 82 70 55 45 24 56 48 43 43
116 121 127 133 137 137 130 149 149 136 144 137 132 135 136 140 133 129 123 120 114 114 104 87 72 85 93 87 79 86 98 83 81 73 75 76 83 85 81 75 69 68 55 48 43 53 53 51 45
154 157 155 157 167 162 157 188 166 146 147 146 141 136 133 132 125 123 125 125 120 119 112 108 103 97 100 96 97 84 78 86 78 58 65 64 71 80 83 69 61 59 55 51 47 47 48 52 51
197 190 175 164 173 172 199 203 126 153 158 161 150 142 144 149 144 133 112 115 119 119 114 112 108 98 93 87 85 85 80 77 78 62 42 57 68 71 67 60 52 55 57 54 43 44 41 41 41
213 206 179 164 182 192 207 216 171 181 182 176 168 157 162 157 143 127 118 115 119 124 120 116 107 105 94 88 85 70 77 72 73 69 46 38 50 66 74 59 49 51 52 45 38 46 43 42 37
234 228 235 199 182 217 225 209 193 218 218 205 178 167 168 152 142 137 129 120 119 121 121 118 121 121 107 94 90 82 76 84 76 71 55 43 41 55 72 80 62 62 55 47 39 40 38 56 40
288 261 245 263 248 239 233 236 214 198 216 227 191 168 162 151 147 136 128 122 118 116 118 125 130 119 109 95 82 91 74 77 86 79 75 55 48 53 66 60 51 54 60 64 69 58 32 37 45
270 270 280 262 268 272 248 240 222 189 187 197 210 173 159 159 145 133 127 123 113 111 116 118 116 108 105 101 94 108 112 85 92 66 54 50 50 46 63 76 81 62 66 59 60 69 45 7 40
264 276 282 286 274 248 245 238 205 170 156 160 188 131 115 129 135 137 134 127 122 116 113 115 108 108 114 115 102 83 75 63 67 73 69 43 48 40 35 59 83 97 100 87 83 98 80 15 356
278 305 294 283 276 261 237 253 189 168 161 155 158 150 114 110 110 123 139 135 130 123 121 113 109 103 109 119 115 110 106 93 103 105 99 61 56 43 50 33 56 57 83 103 101 85 81 98 308
296 301 281 270 271 271 253 252 194 161 156 150 143 120 113 121 120 125 125 132 133 125 114 112 114 111 109 121 128 135 128 106 79 83 88 92 66 58 59 35 17 36 85 111 83 71 65 110 176
284 279 265 252 254 258 252 247 192 164 153 153 145 132 124 117 124 122 121 125 124 122 124 127 124 114 115 119 130 146 148 109 88 70 94 97 106 95 65 60 21 28 49 87 93 102 81 9 339
255 278 275 249 231 241 251 234 142 115 116 122 126 126 121 115 122 122 122 123 123 126 141 141 126 109 105 110 114 145 173 165 161 156 144 166 146 345 263 74 40 23 25 63 94 127 175 173 248
264 264 279 291 292 298 274 221 105 103 106 110 116 114 106 107 107 121 122 123 126 127 142 145 140 135 124 144 201 201 168 152 183 167 160 190 207 212 215 123 119 70 67 80 96 161 252 238 228
260 266 283 286 286 282 241 163 110 91 101 104 104 103 108 100 92 98 111 117 122 126 136 151 153 150 150 227 257 173 280 184 171 188 183 203 205 229 261 126 133 149 93 124 151 175 232 240 235
265 284 279 271 287 283 267 217 148 116 108 117 126 119 106 96 91 93 97 98 99 123 154 170 170 153 139 192 291 308 260 276 210 142 196 290 258 259 303 253 69 88 102 69 153 186 238 231 225
234 249 255 265 266 277 291 324 73 134 140 140 127 119 121 116 101 83 81 86 82 80 95 119 146 151 165 216 265 303 296 251 244 195 205 240 256 269 270 279 230 214 140 147 110 201 271 262 267
253 264 263 269 277 278 286 282 76 104 122 131 130 117 104 97 91 88 83 75 93 106 97 80 58 71 185 243 287 284 291 250 249 254 248 226 234 247 259 257 258 258 243 225 177 248 255 259 260
Height
1492 1492 1492 1493 1494 1499 1504 1500 1497 1498 1498 1500 1499 1499 1503 1507 1513 1523 1523 1521 1520 1518 1517 1516 1515 1514 1513 1513 1512 1511 1511 1511 1511 1511 1511 1512 1511 1511 1511 1511 1511 1511 1510 1510 1509 1509 1508 1507 1505
1493 1493 1494 1493 1497 1508 1509 1500 1501 1501 1501 1501 1501 1503 1506 1512 1516 1520 1521 1521 1520 1519 1518 1517 1516 1515 1515 1514 1513 1512 1511 1511 1512 1512 1512 1513 1513 1512 1512 1512 1512 1512 1512 1511 1511 1510 1509 1509 1507
1493 1494 1495 1493 1498 1506 1508 1501 1501 1502 1502 1502 1504 1507 1511 1516 1519 1520 1522 1522 1521 1520 1519 1518 1518 1517 1516 1515 1514 1513 1512 1512 1513 1513 1514 1514 1514 1514 1514 1513 1514 1513 1513 1512 1512 1512 1511 1510 1509
1495 1495 1495 1498 1503 1501 1501 1501 1501 1503 1503 1504 1505 1510 1516 1519 1521 1522 1522 1522 1522 1521 1520 1520 1519 1518 1517 1516 1515 1513 1511 1512 1513 1514 1515 1516 1515 1515 1515 1515 1515 1515 1514 1514 1513 1513 1512 1512 1511
1496 1496 1498 1503 1504 1500 1499 1501 1502 1503 1505 1506 1509 1514 1519 1521 1522 1523 1523 1524 1523 1523 1522 1521 1520 1520 1519 1518 1517 1515 1514 1515 1516 1516 1517 1517 1517 1517 1516 1517 1517 1516 1516 1515 1515 1515 1514 1513 1513
1497 1495 1504 1509 1506 1502 1501 1503 1504 1505 1507 1509 1511 1514 1520 1522 1523 1524 1524 1525 1525 1524 1523 1522 1522 1521 1521 1520 1519 1519 1518 1518 1518 1518 1519 1519 1519 1519 1519 1519 1518 1518 1517 1517 1517 1516 1516 1515 1515
1498 1498 1504 1506 1508 1506 1504 1504 1505 1507 1509 1511 1512 1516 1520 1523 1524 1524 1525 1525 1525 1525 1525 1524 1523 1523 1523 1522 1522 1521 1521 1521 1521 1521 1521 1521 1521 1521 1521 1521 1521 1520 1520 1519 1519 1518 1518 1517 1517
1498 1500 1503 1505 1509 1509 1506 1506 1508 1509 1511 1513 1513 1516 1521 1523 1524 1525 1526 1526 1526 1526 1526 1526 1525 1525 1525 1524 1524 1524 1523 1523 1523 1523 1523 1523 1523 1523 1523 1523 1523 1522 1522 1521 1521 1520 1520 1520 1519
1499 1503 1508 1506 1508 1508 1507 1508 1510 1511 1513 1514 1516 1518 1521 1523 1524 1525 1526 1527 1527 1528 1527 1527 1527 1527 1527 1526 1526 1526 1526 1525 1525 1525 1525 1525 1525 1525 1525 1525 1525 1524 1524 1524 1523 1523 1522 1522 1523
1500 1506 1506 1503 1504 1506 1507 1509 1510 1512 1514 1516 1518 1520 1521 1523 1524 1526 1526 1527 1528 1528 1529 1528 1528 1528 1528 1528 1528 1527 1527 1527 1527 1527 1527 1527 1527 1527 1527 1527 1527 1526 1526 1526 1525 1525 1524 1525 1525
1501 1504 1503 1504 1505 1507 1509 1510 1511 1512 1514 1516 1518 1520 1522 1524 1525 1526 1527 1528 1528 1529 1529 1529 1529 1529 1529 1529 1529 1528 1529 1529 1529 1529 1529 1529 1529 1529 1529 1529 1529 1528 1528 1528 1527 1527 1527 1527 1527
1502 1503 1505 1507 1508 1509 1510 1511 1512 1513 1516 1517 1519 1521 1522 1524 1525 1526 1527 1528 1529 1529 1530 1530 1530 1530 1530 1530 1530 1530 1530 1530 1530 1530 1531 1531 1531 1531 1531 1531 1530 1530 1530 1530 1530 1529 1529 1529 1529
1505 1506 1507 1509 1510 1510 1511 1512 1513 1515 1517 1518 1519 1521 1523 1524 1525 1527 1527 1528 1529 1529 1530 1530 1531 1531 1531 1531 1531 1531 1530 1531 1531 1531 1532 1532 1532 1532 1532 1532 1532 1532 1531 1531 1531 1531 1531 1530 1530
1506 1506 1508 1509 1510 1511 1511 1512 1513 1515 1517 1518 1519 1521 1523 1524 1525 1526 1527 1528 1529 1530 1530 1530 1531 1531 1531 1531 1531 1531 1531 1531 1531 1532 1532 1533 1533 1533 1533 1533 1533 1533 1533 1533 1532 1532 1532 1532 1532
1506 1507 1508 1508 1509 1511 1512 1514 1512 1514 1515 1517 1519 1521 1522 1524 1525 1526 1527 1528 1529 1530 1530 1531 1532 1532 1532 1532 1532 1532 1532 1532 1532 1532 1532 1533 1533 1533 1534 1533 1533 1534 1534 1533 1533 1533 1533 1533 1533
1505 1507 1513 1509 1508 1509 1514 1519 1512 1513 1515 1516 1518 1520 1522 1523 1525 1526 1527 1528 1529 1529 1530 1531 1532 1532 1532 1532 1533 1533 1533 1532 1532 1532 1533 1533 1533 1534 1534 1534 1534 1534 1534 1534 1533 1533 1533 1533 1533
1506 1512 1513 1510 1507 1507 1511 1516 1512 1512 1514 1515 1517 1518 1521 1522 1524 1526 1527 1528 1529 1529 1530 1531 1531 1532 1532 1533 1533 1533 1533 1533 1533 1533 1532 1533 1533 1534 1534 1534 1534 1534 1534 1534 1534 1534 1534 1534 1533
1511 1510 1511 1510 1506 1506 1510 1512 1510 1511 1512 1513 1515 1517 1519 1521 1523 1525 1526 1527 1528 1529 1529 1530 1531 1532 1532 1533 1533 1533 1534 1533 1533 1533 1533 1533 1534 1534 1534 1534 1534 1534 1534 1534 1534 1534 1534 1534 1534
1503 1507 1510 1508 1504 1506 1509 1510 1509 1510 1511 1512 1513 1515 1517 1519 1522 1523 1525 1526 1528 1529 1529 1530 1531 1531 1532 1532 1533 1533 1533 1534 1534 1533 1533 1534 1534 1534 1534 1534 1534 1534 1534 1534 1534 1534 1534 1534 1534
1503 1508 1510 1507 1503 1506 1509 1509 1507 1507 1509 1511 1512 1513 1515 1518 1520 1522 1523 1525 1526 1528 1529 1530 1530 1531 1531 1532 1532 1533 1533 1534 1534 1534 1534 1534 1534 1534 1534 1534 1534 1534 1534 1534 1534 1534 1534 1534 1534
1505 1508 1510 1509 1505 1503 1508 1511 1506 1505 1508 1510 1512 1513 1514 1516 1518 1520 1522 1524 1525 1527 1528 1529 1530 1530 1531 1531 1532 1532 1533 1533 1533 1533 1533 1533 1533 1533 1533 1534 1533 1533 1533 1533 1533 1533 1534 1534 1534
1509 1504 1505 1507 1510 1511 1508 1520 1509 1505 1507 1509 1511 1512 1514 1516 1517 1519 1521 1523 1524 1526 1527 1528 1529 1529 1530 1530 1531 1531 1531 1532 1532 1532 1532 1532 1532 1532 1532 1532 1533 1532 1532 1533 1533 1533 1533 1533 1533
1505 1503 1504 1505 1508 1510 1505 1512 1510 1503 1508 1509 1510 1512 1513 1515 1516 1518 1520 1521 1523 1524 1526 1527 1528 1528 1529 1529 1530 1530 1531 1531 1531 1531 1531 1531 1531 1531 1531 1531 1531 1531 1531 1532 1532 1532 1532 1532 1532
1503 1503 1502 1502 1507 1517 1505 1508 1513 1503 1504 1506 1508 1511 1513 1514 1516 1517 1519 1520 1521 1522 1524 1525 1526 1527 1527 1528 1528 1529 1529 1530 1530 1530 1530 1530 1530 1530 1530 1530 1530 1530 1530 1530 1531 1531 1531 1531 1531
1503 1511 1520 1520 1520 1515 1498 1504 1509 1499 1499 1503 1507 1509 1511 1513 1515 1516 1517 1518 1520 1521 1522 1523 1524 1525 1525 1526 1526 1527 1527 1528 1528 1528 1528 1528 1528 1528 1529 1529 1529 1529 1529 1529 1529 1529 1529 1530 1530
1505 1509 1524 1532 1525 1513 1501 1505 1504 1498 1500 1504 1506 1509 1511 1512 1514 1515 1516 1517 1518 1519 1520 1521 1522 1523 1524 1524 1525 1526 1526 1526 1526 1526 1526 1526 1526 1526 1527 1527 1527 1527 1527 1527 1527 1527 1528 1528 1528
1506 1507 1505 1514 1513 1516 1508 1503 1502 1499 1502 1504 1506 1509 1511 1512 1513 1514 1515 1516 1517 1517 1518 1519 1520 1520 1521 1522 1523 1523 1524 1524 1524 1524 1525 1524 1525 1525 1525 1525 1525 1525 1525 1525 1525 1525 1526 1526 1526
1503 1504 1508 1516 1524 1525 1511 1508 1512 1507 1506 1506 1507 1509 1510 1512 1513 1513 1514 1515 1515 1516 1517 1517 1517 1518 1519 1520 1520 1521 1521 1521 1522 1522 1522 1522 1522 1522 1522 1523 1523 1523 1523 1523 1523 1523 1523 1524 1524
1504 1506 1506 1510 1512 1524 1525 1518 1500 1502 1503 1505 1507 1508 1510 1511 1512 1513 1514 1514 1514 1514 1515 1515 1516 1516 1517 1517 1518 1518 1518 1519 1519 1519 1519 1519 1520 1520 1520 1520 1520 1520 1521 1520 1520 1520 1521 1521 1521
1500 1502 1505 1517 1516 1512 1519 1519 1498 1500 1502 1504 1506 1508 1509 1510 1511 1512 1512 1513 1513 1513 1513 1513 1514 1514 1514 1515 1515 1515 1515 1516 1516 1516 1516 1516 1517 1517 1517 1517 1517 1518 1518 1518 1518 1518 1518 1518 1518